| time (UTC) | temp F | wind direction | speed MPH | gust MPH | rain 1hr in | rain 24hr in | rain mn in | humidity % | barometer mb |
| 20260502163053 | 65 | 340 | 12.0 | 0.0 | 0.00 | 0.00 | 0.00 | 41 | 1004.1 |
| 20260502161550 | 64 | 336 | 11.0 | 0.0 | 0.00 | 0.00 | 0.00 | 42 | 1004.1 |
| 20260502151541 | 60 | 286 | 8.0 | 0.0 | 0.00 | 0.00 | 0.00 | 46 | 1004.0 |
| 20260502123018 | 49 | 148 | 4.0 | 0.0 | 0.00 | 0.00 | 0.00 | 58 | 1003.6 |
| 20260502121517 | 49 | 263 | 4.0 | 0.0 | 0.00 | 0.00 | 0.00 | 57 | 1003.3 |
| 20260502114516 | 49 | 230 | 9.0 | 0.0 | 0.00 | 0.00 | 0.00 | 55 | 1003.3 |
| 20260502113014 | 49 | 233 | 10.0 | 0.0 | 0.00 | 0.00 | 0.00 | 55 | 1003.1 |
| 20260502111518 | 50 | 207 | 11.0 | 0.0 | 0.00 | 0.00 | 0.00 | 53 | 1002.8 |
| 20260502110014 | 51 | 208 | 12.0 | 0.0 | 0.00 | 0.00 | 0.00 | 51 | 1002.9 |
| 20260502104514 | 50 | 204 | 11.0 | 0.0 | 0.00 | 0.00 | 0.00 | 53 | 1003.0 |
| 20260502103033 | 50 | 194 | 10.0 | 0.0 | 0.00 | 0.00 | 0.00 | 53 | 1003.2 |
| 20260502101511 | 49 | 254 | 6.0 | 0.0 | 0.00 | 0.00 | 0.00 | 54 | 1003.6 |
| 20260502091507 | 51 | 188 | 14.0 | 0.0 | 0.00 | 0.00 | 0.00 | 47 | 1002.8 |
| 20260502070100 | 51 | 193 | 17.0 | 0.0 | 0.00 | 0.00 | 0.00 | 46 | 1003.7 |
| 20260502064554 | 52 | 192 | 14.0 | 0.0 | 0.00 | 0.00 | 0.00 | 44 | 1003.7 |
| 20260502063057 | 49 | 173 | 10.0 | 0.0 | 0.00 | 0.00 | 0.00 | 48 | 1003.9 |
| 20260502061546 | 51 | 175 | 13.0 | 0.0 | 0.00 | 0.00 | 0.00 | 45 | 1004.1 |
| 20260502060043 | 50 | 167 | 12.0 | 0.0 | 0.00 | 0.00 | 0.00 | 46 | 1004.2 |
| 20260502054552 | 50 | 184 | 12.0 | 0.0 | 0.00 | 0.00 | 0.00 | 46 | 1004.2 |
| 20260502053047 | 51 | 186 | 13.0 | 0.0 | 0.00 | 0.00 | 0.00 | 46 | 1004.4 |
| 20260502051539 | 49 | 169 | 10.0 | 0.0 | 0.00 | 0.00 | 0.00 | 49 | 1004.4 |
| 20260502050044 | 48 | 180 | 10.0 | 0.0 | 0.00 | 0.00 | 0.00 | 51 | 1004.7 |
| 20260502044537 | 47 | 175 | 9.0 | 0.0 | 0.00 | 0.00 | 0.00 | 52 | 1004.8 |
| 20260502043034 | 48 | 167 | 10.0 | 0.0 | 0.00 | 0.00 | 0.00 | 50 | 1005.0 |
| 20260502041538 | 48 | 160 | 9.0 | 0.0 | 0.00 | 0.00 | 0.00 | 49 | 1005.2 |
| 20260502040032 | 48 | 160 | 9.0 | 0.0 | 0.00 | 0.00 | 0.00 | 50 | 1005.5 |
| 20260502034531 | 47 | 168 | 8.0 | 0.0 | 0.00 | 0.00 | 0.00 | 51 | 1005.6 |
| 20260502033038 | 47 | 165 | 7.0 | 0.0 | 0.00 | 0.00 | 0.00 | 50 | 1005.7 |
| 20260502031528 | 46 | 169 | 5.0 | 0.0 | 0.00 | 0.00 | 0.00 | 52 | 1005.7 |
| 20260502030029 | 48 | 159 | 5.0 | 0.0 | 0.00 | 0.00 | 0.00 | 51 | 1005.7 |
| 20260502024527 | 50 | 160 | 6.0 | 0.0 | 0.00 | 0.00 | 0.00 | 48 | 1005.7 |
| 20260502023027 | 50 | 165 | 5.0 | 0.0 | 0.00 | 0.00 | 0.00 | 47 | 1005.8 |
| 20260502021527 | 53 | 159 | 5.0 | 0.0 | 0.00 | 0.00 | 0.00 | 43 | 1005.8 |
| 20260502020026 | 56 | 169 | 6.0 | 0.0 | 0.00 | 0.00 | 0.00 | 38 | 1005.8 |
| 20260502014525 | 61 | 182 | 7.0 | 0.0 | 0.00 | 0.00 | 0.00 | 33 | 1005.8 |
| 20260502013023 | 63 | 186 | 9.0 | 0.0 | 0.00 | 0.00 | 0.00 | 28 | 1005.9 |
| 20260502011522 | 65 | 194 | 11.0 | 0.0 | 0.00 | 0.00 | 0.00 | 26 | 1006.1 |
| 20260502010024 | 66 | 187 | 10.0 | 0.0 | 0.00 | 0.00 | 0.00 | 25 | 1006.2 |
| 20260502004519 | 66 | 203 | 12.0 | 0.0 | 0.00 | 0.00 | 0.00 | 23 | 1006.3 |
| 20260502003017 | 67 | 173 | 10.0 | 0.0 | 0.00 | 0.00 | 0.00 | 22 | 1006.4 |
| 20260502001516 | 67 | 171 | 10.0 | 0.0 | 0.00 | 0.00 | 0.00 | 23 | 1006.5 |
| 20260502000017 | 67 | 227 | 9.0 | 0.0 | 0.00 | 0.00 | 0.00 | 21 | 1006.7 |
| 20260501234514 | 66 | 219 | 10.0 | 0.0 | 0.00 | 0.00 | 0.00 | 21 | 1006.8 |
| 20260501233014 | 67 | 198 | 10.0 | 0.0 | 0.00 | 0.00 | 0.00 | 20 | 1006.7 |
| 20260501231512 | 67 | 161 | 8.0 | 0.0 | 0.00 | 0.00 | 0.00 | 22 | 1006.7 |
| 20260501230013 | 67 | 197 | 9.0 | 0.0 | 0.00 | 0.00 | 0.00 | 21 | 1006.9 |
| 20260501224509 | 67 | 184 | 9.0 | 0.0 | 0.00 | 0.00 | 0.00 | 21 | 1006.9 |
| 20260501223023 | 67 | 192 | 10.0 | 0.0 | 0.00 | 0.00 | 0.00 | 21 | 1007.2 |
| 20260501221505 | 66 | 169 | 10.0 | 0.0 | 0.00 | 0.00 | 0.00 | 21 | 1007.3 |
| 20260501220004 | 66 | 211 | 11.0 | 0.0 | 0.00 | 0.00 | 0.00 | 22 | 1007.5 |
| 20260501214506 | 66 | 171 | 6.0 | 0.0 | 0.00 | 0.00 | 0.00 | 23 | 1007.6 |
| 20260501213109 | 66 | 172 | 8.0 | 0.0 | 0.00 | 0.00 | 0.00 | 21 | 1007.9 |
| 20260501211604 | 66 | 223 | 9.0 | 0.0 | 0.00 | 0.00 | 0.00 | 23 | 1008.1 |
| 20260501210056 | 66 | 142 | 6.0 | 0.0 | 0.00 | 0.00 | 0.00 | 23 | 1008.2 |
| 20260501204609 | 65 | 151 | 10.0 | 0.0 | 0.00 | 0.00 | 0.00 | 23 | 1008.4 |
| 20260501203103 | 64 | 148 | 10.0 | 0.0 | 0.00 | 0.00 | 0.00 | 23 | 1008.5 |
| 20260501201550 | 64 | 164 | 7.0 | 0.0 | 0.00 | 0.00 | 0.00 | 23 | 1008.6 |
| 20260501200048 | 64 | 190 | 9.0 | 0.0 | 0.00 | 0.00 | 0.00 | 25 | 1008.7 |
| 20260501194547 | 63 | 189 | 12.0 | 0.0 | 0.00 | 0.00 | 0.00 | 24 | 1008.9 |
| 20260501193048 | 63 | 219 | 9.0 | 0.0 | 0.00 | 0.00 | 0.00 | 25 | 1009.0 |
| 20260501191543 | 62 | 186 | 11.0 | 0.0 | 0.00 | 0.00 | 0.00 | 25 | 1009.1 |
| 20260501190042 | 61 | 155 | 12.0 | 0.0 | 0.00 | 0.00 | 0.00 | 25 | 1009.2 |
| 20260501184540 | 62 | 164 | 9.0 | 0.0 | 0.00 | 0.00 | 0.00 | 28 | 1009.3 |
| 20260501183038 | 61 | 150 | 9.0 | 0.0 | 0.00 | 0.00 | 0.00 | 28 | 1009.4 |
| 20260501181537 | 60 | 157 | 8.0 | 0.0 | 0.00 | 0.00 | 0.00 | 26 | 1009.5 |
| 20260501180036 | 60 | 163 | 9.0 | 0.0 | 0.00 | 0.00 | 0.00 | 26 | 1009.6 |
| 20260501174534 | 60 | 158 | 10.0 | 0.0 | 0.00 | 0.00 | 0.00 | 27 | 1009.7 |
| 20260501173036 | 59 | 290 | 9.0 | 0.0 | 0.00 | 0.00 | 0.00 | 29 | 1009.8 |
| 20260501171533 | 59 | 182 | 8.0 | 0.0 | 0.00 | 0.00 | 0.00 | 27 | 1009.9 |